Find Yaogan 31 hao 01 zu 01 xing

NORAD ID: 43275 Int'l Des: 2018-034 Owner: ZLZB Country: CN Constellation: yaogan operational
LEO

Live Position

Loading 3D Globe...

About Yaogan 31 hao 01 zu 01 xing

Description loading...

Upcoming Passes

Passes for default location (London). Set your location on the main map for personalized predictions.

Altitude History

Loading altitude history...

Two-Line Element Set

1 43275U 18034A 26105.85385521 -.00000118 00000-0 -37329-4 0 9998
2 43275 63.3940 251.6641 0269903 7.2722 353.2098 13.45456481393716
Epoch: Apr 15, 2026 • Age: 6 hours

Current Status

Altitude 910.8 km
Velocity 7.49 km/s
Sub-Earth Point 30.17°N, 33.62°E
Launch Date Apr 10, 2018
Age 8 years
Type military

Technical Details

Classification Payload
Mass 500.00 kg
Dry Mass 500.00 kg
Total Mass 500.00 kg
Length 0.50 m
Diameter 0.50 m
Span 1.00 m
Shape Box + 2 Pan
Manufacturer DFHZ
Bus Type JB-8B
Phase Status In Orbit
Owner/State ZLZB/CN

Most Searched